Terminal Aerodrome Forecast
Issued by NWS

Home | Current Version | Previous Version | Text Only | Print | Product List | Glossary On
Versions: 1 2 3 4 5 6 7 8 9 10 11 12 13 14 15
869
FTUS46 KMTR 102340
TAFOAK
TAF
KOAK 102340Z 1100/1206 31007KT P6SM BKN200
     FM110300 VRB03KT 6SM BR SCT200
     FM111700 23005KT 6SM HZ SCT200
     FM112100 28006KT P6SM SCT200
     FM120300 27003KT P6SM FEW200=

USA.gov is the U.S. government's official web portal to all federal, state and local government web resources and services.